CW2654 Weather Reports


Display with metric or nautical units.
time (UTC)temp
F
wind
direction
speed
MPH
gust
MPH
rain 1hr
in
rain 24hr
in
rain mn
in
humidity
%
barometer
mb
20260903084601 51 105 2.0 8.0 0.02 0.86 0.05 99 1010.1
20260903083059 51 102 1.0 11.0 0.03 0.86 0.05 99 1010.2
20260903081601 51 107 3.0 8.0 0.03 0.86 0.05 99 1010.3
20260903080107 51 107 4.0 13.0 0.04 0.85 0.04 98 1010.3
20260903074601 51 142 3.0 11.0 0.04 0.84 0.03 98 1010.5
20260903073100 52 114 4.0 12.0 0.03 0.83 0.02 99 1010.3
20260903071611 52 0 1.0 7.0 0.03 0.83 0.02 99 1010.4
20260903070107 52 0 1.0 8.0 0.01 0.81 0.00 99 1010.3
20260903064600 52 0 1.0 7.0 0.00 0.80 0.80 99 1010.2
20260903063127 52 106 0.0 8.0 0.00 0.80 0.80 98 1010.0
20260903061608 52 105 0.0 7.0 0.00 0.80 0.80 99 1010.0
20260903060117 52 0 0.0 6.0 0.00 0.80 0.80 99 1010.1
20260903054609 52 0 0.0 6.0 0.00 0.80 0.80 98 1010.3
20260903053105 52 0 0.0 7.0 0.00 0.80 0.80 98 1010.1
20260903051602 52 0 0.0 9.0 0.00 0.80 0.80 99 1010.1
20260903050128 52 111 2.0 8.0 0.00 0.80 0.80 98 1010.0
20260903044558 53 0 2.0 10.0 0.02 0.80 0.80 98 1009.9
20260903043059 53 0 1.0 7.0 0.04 0.80 0.80 98 1009.8
20260903041603 53 105 2.0 9.0 0.04 0.80 0.80 98 1009.7
20260903040104 53 111 1.0 11.0 0.03 0.79 0.79 98 1009.7
20260903034603 53 0 0.0 7.0 0.01 0.77 0.77 98 1009.6
20260903033103 54 114 0.0 6.0 0.00 0.76 0.76 98 1009.5
20260903031601 54 111 0.0 6.0 0.00 0.76 0.76 98 1009.3
20260903030100 54 108 0.0 7.0 0.00 0.76 0.76 98 1009.0
20260903024600 54 109 1.0 9.0 0.00 0.76 0.76 98 1008.9
20260903023124 54 0 0.0 10.0 0.01 0.76 0.76 98 1008.9
20260903021607 54 0 0.0 8.0 0.03 0.76 0.76 98 1008.8
20260903020101 55 0 2.0 8.0 0.04 0.76 0.76 97 1008.7
20260903014612 55 0 2.0 8.0 0.07 0.76 0.76 98 1008.6
20260903013101 55 0 0.0 4.0 0.12 0.75 0.75 97 1008.5
20260903011611 55 178 1.0 6.0 0.23 0.73 0.73 97 1008.2
20260903010059 55 0 1.0 6.0 0.26 0.72 0.72 97 1008.1
20260903004601 56 0 1.0 5.0 0.23 0.69 0.69 97 1008.0
20260903003103 56 0 2.0 6.0 0.18 0.63 0.63 97 1007.9
20260903001600 56 0 0.0 3.0 0.05 0.50 0.50 97 1007.6
20260903000107 56 0 0.0 2.0 0.01 0.46 0.46 97 1007.6
20260902234559 57 0 0.0 1.0 0.02 0.46 0.46 97 1007.6
20260902233102 56 0 0.0 1.0 0.01 0.45 0.45 97 1007.6
20260902231609 57 0 0.0 4.0 0.02 0.45 0.45 97 1007.6
20260902230104 57 0 0.0 5.0 0.02 0.45 0.45 97 1007.3
20260902224602 57 0 0.0 3.0 0.02 0.44 0.44 97 1007.6
20260902223109 57 0 0.0 8.0 0.02 0.44 0.44 97 1007.5
20260902221602 57 0 0.0 1.0 0.02 0.43 0.43 98 1007.6
20260902214601 57 0 0.0 2.0 0.06 0.42 0.42 98 1007.4
20260902213102 56 0 0.0 0.0 0.12 0.42 0.42 98 1007.5
20260902211600 56 0 0.0 0.0 0.15 0.41 0.41 97 1007.6
20260902210058 56 0 0.0 0.0 0.18 0.40 0.40 97 1007.3
20260902204604 57 0 0.0 0.0 0.17 0.36 0.36 97 1007.1
20260902203102 57 0 0.0 0.0 0.12 0.30 0.30 97 1007.1
20260902201606 57 0 0.0 0.0 0.11 0.26 0.26 97 1007.0
20260902200112 57 0 0.0 1.0 0.08 0.22 0.22 97 1007.1
20260902194602 57 0 0.0 0.0 0.08 0.19 0.19 96 1007.3
20260902193107 57 0 0.0 2.0 0.09 0.18 0.18 96 1007.3
20260902191559 57 0 0.0 3.0 0.10 0.15 0.15 95 1007.7
20260902190100 57 0 0.0 2.0 0.11 0.14 0.14 96 1007.9
20260902184604 57 0 0.0 1.0 0.09 0.11 0.11 94 1008.1
20260902183108 58 0 0.0 5.0 0.07 0.09 0.09 94 1008.0
20260902181603 59 0 0.0 0.0 0.04 0.05 0.05 95 1008.1
20260902180131 59 0 0.0 0.0 0.03 0.03 0.03 94 1007.8
20260902174558 59 0 0.0 0.0 0.02 0.02 0.02 93 1007.5
20260902173104 59 0 0.0 0.0 0.02 0.02 0.02 93 1007.6
20260902171641 59 0 0.0 0.0 0.01 0.01 0.01 91 1007.5
20260902170105 59 0 0.0 1.0 0.00 0.00 0.00 86 1007.6
20260902164606 59 0 0.0 2.0 0.00 0.00 0.00 86 1007.3
20260902163105 59 0 0.0 1.0 0.00 0.00 0.00 87 1007.4
20260902161559 58 0 0.0 0.0 0.00 0.00 0.00 89 1007.5
20260902160111 58 0 0.0 1.0 0.00 0.00 0.00 88 1007.7
20260902154600 58 0 0.0 0.0 0.00 0.00 0.00 87 1007.7
20260902153057 58 0 0.0 1.0 0.00 0.00 0.00 87 1007.8
20260902151556 58 0 0.0 1.0 0.00 0.00 0.00 88 1007.9
20260902144601 56 0 0.0 0.0 0.00 0.00 0.00 87 1008.1
20260902143107 56 0 0.0 0.0 0.00 0.00 0.00 87 1008.6
20260902141554 56 0 0.0 1.0 0.00 0.00 0.00 86 1008.7
20260902134604 56 0 1.0 4.0 0.00 0.00 0.00 87 1009.1
20260902133058 56 98 0.0 3.0 0.00 0.00 0.00 87 1009.3
20260902131602 57 103 1.0 4.0 0.00 0.00 0.00 86 1009.3
20260902130104 57 105 2.0 6.0 0.00 0.00 0.00 85 1009.6
20260902124603 57 0 1.0 7.0 0.00 0.00 0.00 86 1009.7
20260902123101 56 0 0.0 6.0 0.00 0.00 0.00 86 1010.0
20260902121607 56 0 1.0 6.0 0.00 0.00 0.00 87 1010.3
20260902114559 56 0 0.0 2.0 0.00 0.00 0.00 89 1010.5
20260902113106 56 0 0.0 2.0 0.00 0.00 0.00 88 1010.4
20260902111605 56 113 0.0 3.0 0.00 0.00 0.00 88 1010.6
20260902110116 56 0 0.0 3.0 0.00 0.00 0.00 87 1010.7
20260902104600 56 106 0.0 6.0 0.00 0.00 0.00 87 1010.7
20260902103058 56 113 1.0 4.0 0.00 0.00 0.00 87 1010.8
20260902101601 57 113 0.0 2.0 0.00 0.00 0.00 87 1011.0
20260902100113 57 0 0.0 3.0 0.00 0.00 0.00 86 1011.2
20260902094601 57 106 1.0 4.0 0.00 0.00 0.00 86 1011.2
20260902093058 57 0 1.0 4.0 0.00 0.00 0.00 86 1011.4
20260902091603 57 105 0.0 7.0 0.00 0.00 0.00 86 1011.4